Wind_Speed
19 20 21 22 23 23 23 22 21 21 20 19 18 18 17 14 15 17 16 7 11 14 14 15 17 17 4 3 2 1 5 7 4 1 5 5 4 4 4 4 1 1 2 3 23
20 21 22 23 23 24 24 23 23 22 21 19 18 17 16 7 14 19 10 10 12 15 17 15 9 9 4 4 3 4 6 2 5 3 4 7 6 8 7 6 2 1 2 9 27
20 21 22 23 24 24 24 24 24 23 21 19 16 15 15 5 4 4 12 10 12 12 11 8 8 4 3 3 4 5 15 5 3 2 5 5 8 5 6 4 2 3 5 15 20
22 22 23 24 24 25 23 24 24 23 20 15 11 13 8 3 3 3 11 9 11 13 10 5 4 3 1 3 4 5 5 11 11 13 7 8 8 6 6 8 6 9 12 17 16
22 23 24 25 26 25 25 24 24 20 14 9 10 11 4 6 1 7 11 12 14 10 6 1 0 2 3 3 3 6 9 10 10 11 14 12 14 9 13 10 10 8 12 18 12
23 24 26 27 28 25 27 27 23 11 13 7 9 7 4 6 7 10 13 15 15 9 4 4 4 5 5 4 4 4 5 12 12 15 10 14 16 7 3 3 4 4 13 14 13
23 25 28 28 29 26 29 32 15 7 12 7 6 6 7 3 12 17 17 16 17 13 3 7 5 4 3 4 5 5 10 10 15 9 11 10 17 20 10 6 6 8 7 8 11
25 26 28 28 29 28 32 31 9 7 9 6 6 4 3 10 19 16 17 23 18 20 13 13 9 4 4 4 4 4 4 10 9 6 8 11 20 20 10 9 9 9 7 7 11
26 27 28 28 28 30 33 18 7 6 7 8 4 4 4 12 25 17 15 17 25 9 5 5 5 3 1 4 6 4 9 6 9 6 9 11 15 18 11 11 11 9 11 7 10
26 27 27 26 23 30 32 9 7 7 4 4 6 3 7 7 21 17 19 25 4 6 5 6 4 0 2 3 7 4 6 5 7 4 4 8 15 14 7 11 12 12 12 10 10
25 26 25 23 16 25 31 5 9 6 13 3 3 1 6 21 5 16 21 16 7 7 4 3 2 5 9 10 12 12 12 15 15 13 10 14 15 16 11 8 10 11 13 9 11
27 27 24 21 9 19 28 7 2 2 3 2 3 5 9 6 5 10 20 8 6 6 9 2 7 7 7 9 11 13 14 13 8 10 2 10 16 9 5 5 7 11 12 13 11
27 27 24 21 5 14 19 9 2 2 1 4 4 3 5 6 4 7 9 6 3 4 9 6 7 9 9 13 13 10 10 13 9 3 10 11 8 5 3 3 2 5 10 17 15
27 26 22 16 2 10 4 12 0 2 4 9 6 4 8 3 1 8 8 2 5 4 6 7 6 6 14 15 9 4 6 12 12 7 3 6 4 2 1 7 2 3 9 11 13
27 25 18 12 6 3 11 7 3 0 4 11 8 5 11 5 7 8 12 6 1 5 3 5 5 9 11 8 2 6 6 5 6 6 3 6 4 3 4 4 4 4 8 7 6
26 23 12 7 5 10 12 3 2 5 3 6 6 7 8 5 7 6 7 6 3 4 3 7 6 3 3 11 6 10 5 2 2 2 3 4 3 3 4 4 5 7 9 8 7
25 19 7 9 9 17 2 2 5 6 3 7 5 8 5 5 7 9 7 9 11 9 7 8 5 4 2 7 4 5 3 3 4 4 1 6 5 3 6 7 4 4 8 9 7
24 14 5 6 17 9 1 5 8 1 3 3 4 7 5 9 5 8 7 6 3 4 5 6 8 7 5 2 4 5 3 2 1 2 2 6 4 4 5 6 5 6 8 10 11
23 10 1 17 12 6 5 6 5 5 3 6 6 4 4 3 1 7 4 4 3 5 4 4 6 6 3 2 2 6 3 2 2 1 3 1 3 2 5 6 7 7 7 9 10
17 7 3 17 8 3 5 3 2 3 0 2 2 5 4 5 7 6 3 4 7 4 2 4 7 3 7 4 1 2 5 3 3 3 3 2 2 2 6 8 3 5 7 7 7
7 4 5 13 4 6 4 3 2 1 1 2 1 3 3 3 1 3 3 4 4 7 3 3 1 8 4 6 5 6 4 4 0 2 1 1 2 1 3 5 5 4 5 5 5
2 3 8 11 4 1 2 4 1 0 1 0 1 4 2 2 2 2 3 5 6 3 9 2 3 4 5 4 3 3 5 4 2 5 2 0 2 4 4 3 1 3 4 3 4
2 2 6 5 2 2 2 1 0 0 1 1 2 2 1 2 3 3 2 2 5 4 7 4 2 5 9 5 4 5 7 3 2 2 2 3 3 3 3 4 5 4 4 4 4
3 2 4 5 0 5 3 1 1 0 1 1 2 1 3 3 2 4 4 3 7 2 12 2 1 3 4 5 4 6 8 9 1 3 1 1 1 6 7 5 3 3 4 4 3
2 1 3 2 3 3 2 2 2 1 0 0 2 2 3 3 4 3 3 5 3 6 5 3 1 2 7 9 4 4 5 7 5 1 3 2 2 3 3 1 1 2 1 1 2
4 3 1 1 3 4 2 4 6 2 4 2 3 3 5 4 6 5 4 1 3 5 3 4 2 3 4 5 5 3 6 6 2 3 3 1 3 2 1 4 1 2 3 2 3
4 4 3 2 2 4 4 5 6 5 2 5 5 2 2 7 5 9 7 6 6 5 2 3 2 5 4 6 6 4 2 3 3 1 1 2 2 2 3 4 2 1 2 1 1
Wind_Direction
12 8 5 2 359 356 355 353 351 350 348 348 350 352 358 37 61 60 50 44 15 4 4 11 23 12 41 34 340 193 243 256 279 90 273 326 329 354 339 120 165 226 213 313 148
10 6 3 0 358 355 353 351 349 347 344 344 344 350 354 34 67 54 40 28 17 11 22 23 9 12 21 355 298 212 235 222 212 235 286 323 5 333 7 340 277 322 268 171 147
8 4 1 359 357 354 352 350 347 344 339 337 340 347 347 2 70 357 2 6 10 5 11 21 29 58 57 357 302 275 250 274 261 283 359 305 314 319 0 290 186 289 258 179 160
5 1 358 357 356 354 354 348 345 339 334 332 347 343 355 52 105 313 355 356 349 344 342 19 22 42 27 239 235 293 303 289 289 305 318 316 306 286 227 244 274 257 207 188 173
3 360 358 356 355 355 356 350 343 341 351 355 356 354 50 46 72 331 340 343 341 347 321 352 359 191 211 226 304 246 272 272 296 302 281 284 287 281 273 265 292 277 191 185 169
2 0 358 356 355 359 356 349 345 11 12 20 18 39 68 78 324 330 328 321 328 322 269 185 209 215 257 236 202 248 279 285 287 284 269 271 256 273 290 329 319 242 199 179 166
1 1 359 358 355 357 356 347 356 9 353 18 37 68 69 118 351 346 341 331 323 307 250 248 217 155 190 270 252 263 288 277 268 265 269 262 252 237 271 268 243 227 191 163 138
1 1 359 357 355 355 357 349 2 3 37 55 46 48 114 10 356 1 360 345 329 318 278 283 259 197 170 275 315 310 260 273 285 221 245 213 259 252 209 214 222 208 212 154 143
1 0 358 355 355 355 358 1 38 58 71 40 24 41 353 345 350 342 351 322 322 327 312 291 132 182 123 257 277 206 275 250 295 213 247 214 250 260 204 205 214 200 204 164 142
3 359 358 356 357 358 359 25 72 53 9 7 24 31 358 318 325 338 341 335 308 337 22 40 48 50 173 230 264 255 267 261 253 290 4 300 260 247 202 190 214 200 184 166 141
359 359 358 357 2 6 10 23 14 357 36 61 329 2 297 325 333 346 349 344 13 46 29 341 301 238 254 234 245 263 258 266 270 260 289 267 267 247 230 200 210 201 178 146 132
356 355 356 355 0 11 35 63 59 267 326 16 293 279 281 312 307 323 355 23 27 10 352 303 261 241 281 267 263 250 263 275 280 273 244 271 278 226 179 200 199 181 164 141 127
354 353 352 352 19 12 48 40 324 202 55 322 285 301 312 346 307 303 11 340 358 335 335 282 262 301 280 288 265 234 259 275 265 298 249 260 262 211 158 100 24 222 161 151 145
350 352 350 359 23 1 61 2 82 173 76 338 349 354 346 295 288 340 14 9 338 319 317 268 276 284 316 303 260 265 225 249 267 261 264 179 165 38 117 44 344 153 141 144 134
347 350 348 11 340 38 330 333 171 294 20 327 316 323 326 54 294 329 353 7 315 288 307 270 294 327 334 336 321 250 308 266 251 280 313 346 73 331 130 52 40 74 143 79 96
345 348 347 351 0 340 337 141 146 41 284 340 336 349 358 6 347 317 4 3 240 331 259 261 281 268 288 306 268 299 292 329 284 318 32 334 37 26 23 8 338 49 65 55 78
343 346 344 350 344 332 5 86 26 86 351 347 337 342 338 321 333 13 350 9 35 357 358 324 296 302 307 329 330 354 10 341 2 22 308 324 72 27 1 2 336 347 63 58 52
341 341 323 5 338 345 57 41 58 314 303 319 323 316 2 1 357 341 359 11 13 26 319 350 329 2 344 9 310 321 8 128 356 360 297 1 33 13 359 13 56 78 87 75 62
339 342 54 346 347 352 71 45 197 210 254 325 324 14 333 13 335 2 17 338 356 354 2 337 283 311 289 314 351 334 359 284 291 216 56 54 72 23 16 49 45 73 81 77 79
336 335 14 349 346 46 70 160 212 208 337 58 38 38 323 326 3 29 357 298 337 346 174 299 296 282 303 357 334 229 308 13 5 14 57 39 77 45 357 357 44 53 63 71 71
347 25 347 351 3 48 108 198 227 244 128 131 189 303 289 295 96 322 277 295 345 325 7 310 229 297 1 22 335 340 7 4 177 6 117 21 56 183 322 309 327 58 50 47 71
47 352 350 358 45 17 115 180 306 307 59 38 201 221 254 301 299 273 249 225 3 336 348 293 294 287 261 277 284 9 358 360 22 329 41 17 30 31 5 330 286 66 48 46 58
80 284 357 12 95 345 286 62 299 5 253 273 274 216 311 280 342 228 288 241 345 18 345 339 313 337 346 8 26 32 350 326 249 64 3 96 290 52 26 82 56 77 58 52 43
98 356 335 46 105 129 138 169 286 330 269 282 274 44 359 326 236 291 306 307 340 346 356 346 294 158 210 268 324 316 337 339 318 77 232 237 305 352 6 0 43 65 38 7 12
42 147 155 290 327 94 79 185 139 236 77 94 297 208 147 303 306 267 273 311 323 5 14 75 320 9 269 269 272 280 322 343 38 321 101 231 147 329 339 285 74 77 96 62 340
134 149 52 168 118 100 335 239 184 215 144 219 169 176 174 212 199 262 314 353 259 344 42 356 299 332 291 358 354 285 350 338 39 9 71 33 44 263 5 130 94 224 177 173 213
125 119 117 172 116 109 218 198 204 135 282 188 184 125 253 245 236 238 241 264 255 299 298 69 35 355 283 351 341 348 296 325 313 295 286 67 317 317 29 47 36 308 181 208 251
Height
843 840 836 834 831 827 824 820 817 813 810 808 804 803 801 799 798 796 796 802 801 799 796 793 791 791 790 793 792 792 798 791 792 787 781 772 769 761 762 764 763 763 762 760 759
844 840 837 834 831 827 824 820 817 813 810 807 804 802 802 801 799 798 803 802 801 799 796 794 794 793 798 797 795 796 792 788 786 781 779 777 777 775 768 768 766 765 762 761 759
845 841 837 834 830 827 823 819 816 813 809 806 803 802 801 800 801 805 804 803 801 800 798 797 797 797 800 801 800 794 784 782 780 779 780 778 776 774 774 767 764 768 765 760 759
846 842 838 834 829 825 821 818 814 811 807 805 802 801 799 801 808 806 804 802 802 800 798 798 798 800 803 803 799 802 792 791 785 781 783 783 777 773 770 767 762 761 759 759 757
846 842 837 833 828 825 821 816 813 809 806 804 802 801 801 805 808 805 803 802 800 799 798 798 800 800 803 801 800 800 795 789 786 784 779 777 779 776 765 762 758 754 754 754 758
846 842 837 832 828 824 820 816 812 808 806 804 802 802 802 812 807 805 802 801 799 798 797 797 797 798 800 800 801 794 794 789 785 781 779 776 773 778 761 759 757 755 753 752 755
846 842 837 832 828 824 819 814 811 808 805 805 804 803 806 811 807 804 802 799 797 796 795 793 794 797 798 798 792 793 796 787 777 778 778 771 764 761 766 761 758 754 752 754 755
847 842 837 832 827 824 818 813 810 809 806 805 805 805 808 807 806 804 801 797 795 792 791 790 791 794 796 794 794 796 794 789 768 771 769 769 765 750 758 760 756 753 754 756 756
847 843 838 833 827 823 817 812 810 809 808 807 807 806 812 807 804 803 801 797 791 788 788 789 790 794 795 796 797 795 790 795 781 768 766 769 762 751 750 754 753 752 751 757 758
848 844 839 834 829 824 818 813 812 811 810 808 810 813 811 814 807 804 802 795 791 789 790 792 798 798 798 798 795 799 797 792 788 773 771 771 762 750 747 750 750 749 749 754 758
848 844 839 835 831 827 820 814 819 817 816 826 827 824 819 815 808 806 801 794 793 796 804 796 798 806 798 797 789 787 789 785 775 766 770 768 760 747 745 748 749 748 744 754 760
849 845 840 835 832 830 825 829 837 838 831 826 826 825 821 820 817 808 804 805 805 805 798 796 802 793 790 788 784 781 781 776 771 763 765 762 758 745 745 749 747 744 746 753 759
849 844 840 836 831 830 831 835 836 836 837 829 825 824 822 820 818 814 809 808 808 801 802 803 793 787 786 775 775 773 773 771 769 761 759 758 752 753 743 744 746 746 743 749 758
849 843 840 836 836 834 833 835 835 835 850 838 828 826 823 820 818 814 812 814 811 811 805 801 791 789 784 774 769 775 765 763 761 759 749 750 749 752 743 750 747 751 749 753 759
849 844 841 836 838 837 839 834 835 837 862 837 835 829 827 829 828 819 816 812 816 813 812 796 792 789 780 777 776 771 762 757 759 753 752 745 751 765 754 762 754 757 755 762 768
848 844 840 839 837 838 835 835 836 853 870 845 841 840 836 831 830 826 823 818 814 816 810 805 792 787 784 776 773 768 761 759 758 765 758 759 752 766 770 781 767 768 775 775 777
847 843 841 839 840 836 835 836 853 861 851 851 854 847 847 842 837 837 837 845 838 842 840 810 793 784 784 776 771 768 770 807 779 792 764 765 759 783 783 786 784 781 783 785 785
846 842 841 840 837 836 836 845 864 861 873 856 852 850 850 849 845 848 847 849 847 844 840 837 818 792 782 783 778 773 772 789 784 776 770 754 780 791 789 788 787 788 789 790 792
844 842 840 840 836 834 842 880 880 886 866 861 855 855 858 851 857 855 872 858 848 852 853 848 820 792 786 783 784 774 771 769 768 782 779 778 790 796 793 792 791 793 794 795 797
843 842 841 838 835 834 855 867 865 861 860 863 870 864 865 860 863 875 883 856 852 849 852 838 833 797 790 784 783 782 779 777 778 768 771 774 778 791 801 801 796 798 802 804 806
844 844 841 837 837 845 876 871 863 859 860 867 871 868 866 877 890 879 882 857 852 848 854 843 843 812 799 799 796 783 784 780 791 784 788 767 783 811 815 815 810 808 810 810 812
845 854 840 837 855 875 874 870 859 860 862 864 865 866 865 865 893 876 880 864 851 851 846 845 842 848 810 799 801 797 799 801 789 793 808 796 792 813 813 815 815 814 816 817 817
848 851 844 841 874 884 868 862 862 862 863 864 865 864 863 868 883 870 857 850 850 853 849 853 856 859 826 810 802 819 803 808 814 822 824 816 800 814 812 814 816 817 819 820 820
847 856 854 854 867 869 872 864 867 863 864 865 866 864 868 870 867 872 859 850 849 851 843 849 850 850 850 827 822 823 816 812 820 816 830 826 808 811 814 812 816 821 823 823 823
849 855 859 872 870 872 878 872 867 867 864 866 867 867 881 878 878 877 861 852 850 851 856 864 856 858 843 832 825 817 823 824 832 819 819 822 829 816 822 823 821 828 830 829 827
847 854 861 868 863 871 876 877 863 867 869 867 875 865 872 881 877 882 860 860 862 857 873 874 864 856 856 827 837 822 826 827 827 822 814 822 818 819 821 827 833 836 837 835 835
843 849 851 864 869 873 868 863 859 864 864 862 865 872 873 865 863 862 861 858 858 857 860 882 884 861 859 844 858 841 845 838 826 835 829 822 818 818 818 818 825 829 833 832 833